Weather History for Gage, OK

Change the Weather History Date:

Friday, December 7, 2012

  Actual Average Record
Temperature  
Mean Temperature 42 °F -  
Max Temperature 55 °F 51 °F 77 °F (1966)
Min Temperature 30 °F 24 °F -3 °F (1950)
Degree Days  
Heating Degree Days 22    
Moisture  
Dew Point 30 °F    
Average Humidity 67    
Maximum Humidity 89    
Minimum Humidity 40    
Precipitation  
Precipitation 0.00 in - - ()
Sea Level Pressure  
Sea Level Pressure 29.90 in    
Wind  
Wind Speed 4 mph (NNW)    
Max Wind Speed 7 mph    
Max Gust Speed -    
Visibility 10 miles    
Events      
Averages and records for this station are not official NWS values.
T = Trace of Precipitation, MM = Missing Value Source: NWS Daily Summary

Daily Weather History Graph

Daily Weather History Graph

Search for Another Location

Airport:

Trip Planner

Search our weather history database for the weather conditions in past years. The results will help you decide how hot, cold, wet, or windy it might be!

Date:

Astronomy

Dec. 07, 2012 Rise Set
Actual Time 7:37 AM CST 5:23 PM CST
Civil Twilight 7:09 AM CST 5:52 PM CST
Nautical Twilight 6:37 AM CST 6:24 PM CST
Astronomical Twilight 6:05 AM CST 6:55 PM CST
Moon 1:08 AM CST (12/7) 1:13 PM CST (12/7)
Length of Visible Light 10h 43m
Length of Day
9h 46m
Last Quarter, 38% of the Moon is Illuminated
Dec 7
Last Quarter
Dec 13
New
Dec 19
First Quarter
Dec 28
Full
Jan 4
Last Quarter

Hourly Weather History & Observations

Time (CST) Temp. Windchill Dew Point Humidity Pressure Visibility Wind Dir Wind Speed Gust Speed Precip Events Conditions
12:53 AM 36.0 °F 30.3 °F 28.0 °F 73% 29.93 in 10.0 mi North 6.9 mph - N/A   Clear
1:53 AM 34.0 °F 28.8 °F 27.0 °F 75% 29.90 in 10.0 mi NNE 5.8 mph - N/A   Clear
2:53 AM 32.0 °F 27.5 °F 25.0 °F 75% 29.92 in 10.0 mi WNW 4.6 mph - N/A   Clear
3:53 AM 33.1 °F 27.7 °F 25.0 °F 72% 29.90 in 10.0 mi North 5.8 mph - N/A   Clear
4:53 AM 34.0 °F 31.0 °F 25.0 °F 70% 29.89 in 10.0 mi NNW 3.5 mph - N/A   Clear
5:53 AM 35.1 °F - 25.0 °F 67% 29.91 in 10.0 mi Calm Calm - N/A   Clear
6:16 AM 35.6 °F 32.8 °F 24.8 °F 65% 29.90 in 10.0 mi NNW 3.5 mph - N/A   Mostly Cloudy
6:53 AM 36.0 °F 32.1 °F 24.1 °F 62% 29.92 in 10.0 mi NNW 4.6 mph - N/A   Overcast
7:53 AM 37.0 °F 32.4 °F 25.0 °F 62% 29.92 in 10.0 mi North 5.8 mph - N/A   Overcast
8:53 AM 37.9 °F 33.5 °F 26.1 °F 62% 29.92 in 10.0 mi NNW 5.8 mph - N/A   Overcast
9:17 AM 39.2 °F 35.9 °F 26.6 °F 61% 29.92 in 10.0 mi NNW 4.6 mph - N/A   Overcast
9:53 AM 41.0 °F 39.0 °F 28.0 °F 60% 29.93 in 10.0 mi NNE 3.5 mph - N/A   Overcast
10:53 AM 44.1 °F - 37.0 °F 76% 29.91 in 10.0 mi Calm Calm - N/A   Overcast
11:14 AM 44.6 °F 43.1 °F 35.6 °F 71% 29.90 in 10.0 mi Variable 3.5 mph - N/A   Mostly Cloudy
11:26 AM 44.6 °F - 37.4 °F 76% 29.89 in 10.0 mi Calm Calm - N/A   Partly Cloudy
11:53 AM 46.9 °F - 37.0 °F 68% 29.89 in 10.0 mi NW 3.5 mph - N/A   Clear
12:53 PM 50.0 °F - 35.1 °F 57% 29.86 in 10.0 mi Calm Calm - N/A   Clear
1:53 PM 52.0 °F - 34.0 °F 50% 29.83 in 10.0 mi WSW 4.6 mph - N/A   Clear
2:53 PM 54.0 °F - 32.0 °F 43% 29.81 in 10.0 mi SW 4.6 mph - N/A   Clear
3:53 PM 55.0 °F - 30.9 °F 40% 29.81 in 10.0 mi Calm Calm - N/A   Clear
4:53 PM 53.1 °F - 32.0 °F 45% 29.83 in 10.0 mi ENE 4.6 mph - N/A   Clear
5:53 PM 46.0 °F 43.1 °F 33.1 °F 61% 29.86 in 10.0 mi ENE 5.8 mph - N/A   Clear
6:53 PM 42.8 °F 40.1 °F 32.0 °F 66% 29.88 in 10.0 mi ENE 4.6 mph - N/A   Clear
7:53 PM 37.0 °F - 30.9 °F 79% 29.93 in 10.0 mi Calm Calm - N/A   Clear
8:53 PM 37.4 °F - 33.8 °F 87% 29.91 in 10.0 mi Calm Calm - N/A   Clear
9:53 PM 32.0 °F 28.7 °F 28.0 °F 85% 29.95 in 10.0 mi WNW 3.5 mph - N/A   Clear
10:53 PM 30.0 °F - 27.0 °F 88% 29.96 in 10.0 mi Calm Calm - N/A   Clear
11:53 PM 30.9 °F - 28.0 °F 89% 29.97 in 10.0 mi Calm Calm - N/A   Clear